Time,TemperatureF,DewpointF,PressureIn,WindDirection,WindDirectionDegrees,WindSpeedMPH,WindSpeedGustMPH,Humidity,HourlyPrecipIn,Conditions,Clouds,dailyrainin,SoftwareType,DateUTC
2013-03-02 00:02:00,41.0,27.3,29.68,NNW,338,0.0,0.0,58,0.00,CLR,,0.00,WeatherDisplay:10.37,2013-03-02 07:02:00,
2013-03-02 00:07:00,41.0,27.3,29.68,NNW,338,0.0,0.0,58,0.00,CLR,,0.00,WeatherDisplay:10.37,2013-03-02 07:07:00,
2013-03-02 00:12:00,41.5,27.8,29.68,NNW,338,0.0,0.0,58,0.00,CLR,,0.00,WeatherDisplay:10.37,2013-03-02 07:12:00,
2013-03-02 00:17:00,41.5,27.8,29.68,North,0,0.0,0.0,58,0.00,CLR,,0.00,WeatherDisplay:10.37,2013-03-02 07:17:00,
2013-03-02 00:22:00,41.4,27.7,29.68,West,270,0.0,0.0,58,0.00,CLR,,0.00,WeatherDisplay:10.37,2013-03-02 07:22:00,
2013-03-02 00:27:00,41.4,27.7,29.68,NNW,338,0.0,0.0,58,0.00,CLR,,0.00,WeatherDisplay:10.37,2013-03-02 07:27:00,
2013-03-02 00:32:00,41.4,27.7,29.68,ENE,68,0.0,0.0,58,0.00,CLR,,0.00,WeatherDisplay:10.37,2013-03-02 07:32:00,
2013-03-02 00:37:00,41.0,27.3,29.68,SE,135,0.0,0.0,58,0.00,CLR,,0.00,WeatherDisplay:10.37,2013-03-02 07:37:00,
2013-03-02 00:42:00,40.8,27.6,29.68,NW,315,0.0,0.0,59,0.00,CLR,,0.00,WeatherDisplay:10.37,2013-03-02 07:42:00,
2013-03-02 00:47:00,40.6,27.4,29.68,NW,315,0.0,0.0,59,0.00,CLR,,0.00,WeatherDisplay:10.37,2013-03-02 07:47:00,
2013-03-02 00:52:00,40.6,27.4,29.68,East,90,0.0,0.0,59,0.00,CLR,,0.00,WeatherDisplay:10.37,2013-03-02 07:52:00,
2013-03-02 00:57:00,40.5,27.2,29.68,ESE,112,0.0,0.0,59,0.00,CLR,,0.00,WeatherDisplay:10.37,2013-03-02 07:57:00,
2013-03-02 01:02:00,40.3,27.1,29.68,NW,315,0.0,0.0,59,0.00,CLR,,0.00,WeatherDisplay:10.37,2013-03-02 08:02:00,
2013-03-02 01:07:00,39.9,26.7,29.69,NNW,338,0.0,0.0,59,0.00,CLR,,0.00,WeatherDisplay:10.37,2013-03-02 08:07:00,
2013-03-02 01:12:00,39.7,27.0,29.69,West,270,0.0,0.0,60,0.00,CLR,,0.00,WeatherDisplay:10.37,2013-03-02 08:12:00,
2013-03-02 01:17:00,39.4,26.6,29.69,North,0,0.0,0.0,60,0.00,CLR,,0.00,WeatherDisplay:10.37,2013-03-02 08:17:00,
2013-03-02 01:22:00,39.0,26.3,29.69,NW,315,0.0,0.0,60,0.00,CLR,,0.00,WeatherDisplay:10.37,2013-03-02 08:22:00,
2013-03-02 01:27:00,39.0,26.3,29.69,NW,315,0.0,0.0,60,0.00,CLR,,0.00,WeatherDisplay:10.37,2013-03-02 08:27:00,
2013-03-02 01:32:00,38.5,25.8,29.69,North,0,0.0,0.0,60,0.00,CLR,,0.00,WeatherDisplay:10.37,2013-03-02 08:32:00,
2013-03-02 01:37:00,38.1,25.4,29.69,NE,45,0.0,0.0,60,0.00,CLR,,0.00,WeatherDisplay:10.37,2013-03-02 08:37:00,
2013-03-02 01:42:00,37.8,25.5,29.69,NNE,22,0.0,0.0,61,0.00,CLR,,0.00,WeatherDisplay:10.37,2013-03-02 08:42:00,
2013-03-02 01:47:00,37.6,25.3,29.68,North,0,0.0,0.0,61,0.00,CLR,,0.00,WeatherDisplay:10.37,2013-03-02 08:47:00,
2013-03-02 01:52:00,37.6,25.3,29.68,North,0,0.0,0.0,61,0.00,CLR,,0.00,WeatherDisplay:10.37,2013-03-02 08:52:00,
2013-03-02 01:57:00,37.0,24.8,29.68,NNW,338,0.0,0.0,61,0.00,CLR,,0.00,WeatherDisplay:10.37,2013-03-02 08:57:00,
2013-03-02 02:02:00,37.0,24.8,29.68,NE,45,0.0,0.0,61,0.00,CLR,,0.00,WeatherDisplay:10.37,2013-03-02 09:02:00,
2013-03-02 02:07:00,36.7,24.9,29.67,NE,45,0.0,0.0,62,0.00,CLR,,0.00,WeatherDisplay:10.37,2013-03-02 09:07:00,
2013-03-02 02:12:00,36.5,24.7,29.67,NNW,338,0.0,0.0,62,0.00,CLR,,0.00,WeatherDisplay:10.37,2013-03-02 09:12:00,
2013-03-02 02:17:00,36.5,24.7,29.67,East,90,0.0,0.0,62,0.00,CLR,,0.00,WeatherDisplay:10.37,2013-03-02 09:17:00,
2013-03-02 02:22:00,36.1,24.4,29.67,NNW,338,0.0,0.0,62,0.00,CLR,,0.00,WeatherDisplay:10.37,2013-03-02 09:22:00,
2013-03-02 02:27:00,36.1,24.4,29.67,North,0,0.0,0.0,62,0.00,CLR,,0.00,WeatherDisplay:10.37,2013-03-02 09:27:00,
2013-03-02 02:32:00,35.8,24.0,29.67,North,0,0.0,0.0,62,0.00,CLR,,0.00,WeatherDisplay:10.37,2013-03-02 09:32:00,
2013-03-02 02:37:00,35.6,23.9,29.67,North,0,0.0,0.0,62,0.00,CLR,,0.00,WeatherDisplay:10.37,2013-03-02 09:37:00,
2013-03-02 02:42:00,35.4,23.7,29.67,NNW,338,0.0,0.0,62,0.00,CLR,,0.00,WeatherDisplay:10.37,2013-03-02 09:42:00,
2013-03-02 02:47:00,35.4,24.1,29.67,NNW,338,0.0,0.0,63,0.00,CLR,,0.00,WeatherDisplay:10.37,2013-03-02 09:47:00,
2013-03-02 02:52:00,35.1,23.7,29.67,North,0,0.0,0.0,63,0.00,CLR,,0.00,WeatherDisplay:10.37,2013-03-02 09:52:00,
2013-03-02 02:57:00,34.9,23.6,29.67,North,0,0.0,0.0,63,0.00,CLR,,0.00,WeatherDisplay:10.37,2013-03-02 09:57:00,
2013-03-02 03:02:00,34.7,23.4,29.67,North,0,0.0,0.0,63,0.00,CLR,,0.00,WeatherDisplay:10.37,2013-03-02 10:02:00,
2013-03-02 03:07:00,34.7,23.4,29.67,North,0,0.0,0.0,63,0.00,CLR,,0.00,WeatherDisplay:10.37,2013-03-02 10:07:00,
2013-03-02 03:12:00,34.3,23.4,29.67,NNW,338,0.0,0.0,64,0.00,CLR,,0.00,WeatherDisplay:10.37,2013-03-02 10:12:00,
2013-03-02 03:17:00,34.3,23.4,29.67,NNW,338,0.0,0.0,64,0.00,CLR,,0.00,WeatherDisplay:10.37,2013-03-02 10:17:00,
2013-03-02 03:22:00,34.0,22.7,29.67,North,0,0.0,0.0,63,0.00,CLR,,0.00,WeatherDisplay:10.37,2013-03-02 10:22:00,
2013-03-02 03:27:00,34.0,23.1,29.67,NNW,338,0.0,0.0,64,0.00,CLR,,0.00,WeatherDisplay:10.37,2013-03-02 10:27:00,
2013-03-02 03:32:00,33.8,22.9,29.67,NW,315,0.0,0.0,64,0.00,CLR,,0.00,WeatherDisplay:10.37,2013-03-02 10:32:00,
2013-03-02 03:42:00,33.4,22.6,29.67,NNW,338,0.0,0.0,64,0.00,CLR,,0.00,WeatherDisplay:10.37,2013-03-02 10:42:00,
2013-03-02 03:47:00,33.4,22.6,29.67,North,0,0.0,0.0,64,0.00,CLR,,0.00,WeatherDisplay:10.37,2013-03-02 10:47:00,
2013-03-02 03:52:00,33.3,22.4,29.67,North,0,0.0,0.0,64,0.00,CLR,,0.00,WeatherDisplay:10.37,2013-03-02 10:52:00,
2013-03-02 03:57:00,33.3,22.4,29.67,NNE,22,0.0,0.0,64,0.00,CLR,,0.00,WeatherDisplay:10.37,2013-03-02 10:57:00,
2013-03-02 04:02:00,32.9,22.4,29.67,NNW,338,0.0,0.0,65,0.00,CLR,,0.00,WeatherDisplay:10.37,2013-03-02 11:02:00,
2013-03-02 04:07:00,32.7,22.2,29.66,WNW,292,0.0,0.0,65,0.00,CLR,,0.00,WeatherDisplay:10.37,2013-03-02 11:07:00,
2013-03-02 04:12:00,32.7,22.2,29.66,West,270,0.0,0.0,65,0.00,CLR,,0.00,WeatherDisplay:10.37,2013-03-02 11:12:00,
2013-03-02 04:17:00,32.5,22.1,29.66,NNW,338,0.0,0.0,65,0.00,CLR,,0.00,WeatherDisplay:10.37,2013-03-02 11:17:00,
2013-03-02 04:22:00,32.5,22.1,29.66,North,0,0.0,0.0,65,0.00,CLR,,0.00,WeatherDisplay:10.37,2013-03-02 11:22:00,
2013-03-02 04:27:00,32.5,22.1,29.67,NNW,338,0.0,0.0,65,0.00,CLR,,0.00,WeatherDisplay:10.37,2013-03-02 11:27:00,
2013-03-02 04:32:00,32.4,21.9,29.67,North,0,0.0,0.0,65,0.00,CLR,,0.00,WeatherDisplay:10.37,2013-03-02 11:32:00,
2013-03-02 04:37:00,32.2,21.7,29.67,North,0,0.0,0.0,65,0.00,CLR,,0.00,WeatherDisplay:10.37,2013-03-02 11:37:00,
2013-03-02 04:42:00,32.2,21.7,29.67,North,0,0.0,0.0,65,0.00,CLR,,0.00,WeatherDisplay:10.37,2013-03-02 11:42:00,
2013-03-02 04:47:00,32.2,21.7,29.66,NW,315,0.0,0.0,65,0.00,CLR,,0.00,WeatherDisplay:10.37,2013-03-02 11:47:00,
2013-03-02 04:52:00,32.0,21.6,29.66,NNW,338,0.0,0.0,65,0.00,CLR,,0.00,WeatherDisplay:10.37,2013-03-02 11:52:00,
2013-03-02 04:57:00,32.0,21.9,29.66,North,0,0.0,0.0,66,0.00,CLR,,0.00,WeatherDisplay:10.37,2013-03-02 11:57:00,
2013-03-02 05:02:00,31.8,21.7,29.66,NNE,22,0.0,0.0,66,0.00,CLR,,0.00,WeatherDisplay:10.37,2013-03-02 12:02:00,
2013-03-02 05:07:00,31.8,21.7,29.67,North,0,0.0,0.0,66,0.00,CLR,,0.00,WeatherDisplay:10.37,2013-03-02 12:07:00,
2013-03-02 05:12:00,31.8,21.7,29.67,NNW,338,0.0,0.0,66,0.00,CLR,,0.00,WeatherDisplay:10.37,2013-03-02 12:12:00,
2013-03-02 05:17:00,31.8,21.7,29.67,North,0,0.0,0.0,66,0.00,CLR,,0.00,WeatherDisplay:10.37,2013-03-02 12:17:00,
2013-03-02 05:22:00,31.8,21.7,29.67,North,0,0.0,0.0,66,0.00,CLR,,0.00,WeatherDisplay:10.37,2013-03-02 12:22:00,
2013-03-02 05:27:00,31.8,21.7,29.66,NE,45,0.0,0.0,66,0.00,CLR,,0.00,WeatherDisplay:10.37,2013-03-02 12:27:00,
2013-03-02 05:32:00,31.8,21.7,29.66,NNW,338,0.0,0.0,66,0.00,CLR,,0.00,WeatherDisplay:10.37,2013-03-02 12:32:00,
2013-03-02 05:37:00,31.8,21.7,29.66,North,0,0.0,0.0,66,0.00,CLR,,0.00,WeatherDisplay:10.37,2013-03-02 12:37:00,
2013-03-02 05:42:00,31.5,21.4,29.66,NNW,338,0.0,0.0,66,0.00,CLR,,0.00,WeatherDisplay:10.37,2013-03-02 12:42:00,
2013-03-02 05:47:00,31.5,21.8,29.67,North,0,0.0,0.0,67,0.00,CLR,,0.00,WeatherDisplay:10.37,2013-03-02 12:47:00,
2013-03-02 05:52:00,31.5,21.8,29.67,NW,315,0.0,0.0,67,0.00,CLR,,0.00,WeatherDisplay:10.37,2013-03-02 12:52:00,
2013-03-02 05:57:00,31.5,21.8,29.67,South,180,0.0,0.0,67,0.00,CLR,,0.00,WeatherDisplay:10.37,2013-03-02 12:57:00,
2013-03-02 06:02:00,31.1,21.4,29.67,NE,45,0.0,0.0,67,0.00,CLR,,0.00,WeatherDisplay:10.37,2013-03-02 13:02:00,
2013-03-02 06:07:00,31.1,21.4,29.67,NW,315,0.0,0.0,67,0.00,CLR,,0.00,WeatherDisplay:10.37,2013-03-02 13:07:00,
2013-03-02 06:12:00,31.1,21.4,29.67,NNW,338,0.0,0.0,67,0.00,CLR,,0.00,WeatherDisplay:10.37,2013-03-02 13:12:00,
2013-03-02 06:17:00,31.1,21.4,29.67,NNW,338,0.0,0.0,67,0.00,CLR,,0.00,WeatherDisplay:10.37,2013-03-02 13:17:00,
2013-03-02 06:22:00,30.7,21.1,29.67,NNW,338,0.0,0.0,67,0.00,CLR,,0.00,WeatherDisplay:10.37,2013-03-02 13:22:00,
2013-03-02 06:27:00,30.7,21.1,29.67,NW,315,0.0,0.0,67,0.00,CLR,,0.00,WeatherDisplay:10.37,2013-03-02 13:27:00,
2013-03-02 06:32:00,30.6,20.9,29.67,NNW,338,0.0,0.0,67,0.00,CLR,,0.00,WeatherDisplay:10.37,2013-03-02 13:32:00,
2013-03-02 06:37:00,30.6,20.9,29.67,NW,315,0.0,0.0,67,0.00,CLR,,0.00,WeatherDisplay:10.37,2013-03-02 13:37:00,
2013-03-02 06:42:00,30.4,20.7,29.67,North,0,0.0,0.0,67,0.00,CLR,,0.00,WeatherDisplay:10.37,2013-03-02 13:42:00,
2013-03-02 06:47:00,30.4,20.7,29.67,West,270,0.0,0.0,67,0.00,CLR,,0.00,WeatherDisplay:10.37,2013-03-02 13:47:00,
2013-03-02 06:52:00,30.4,20.7,29.67,WNW,292,0.0,0.0,67,0.00,CLR,,0.00,WeatherDisplay:10.37,2013-03-02 13:52:00,
2013-03-02 06:57:00,30.2,20.6,29.67,NW,315,0.0,0.0,67,0.00,CLR,,0.00,WeatherDisplay:10.37,2013-03-02 13:57:00,
2013-03-02 07:02:00,30.4,21.1,29.67,NNW,338,0.0,0.0,68,0.00,CLR,,0.00,WeatherDisplay:10.37,2013-03-02 14:02:00,
2013-03-02 07:07:00,30.0,20.7,29.66,NW,315,0.0,0.0,68,0.00,CLR,,0.00,WeatherDisplay:10.37,2013-03-02 14:07:00,
2013-03-02 07:12:00,30.4,21.1,29.66,NW,315,0.0,0.0,68,0.00,CLR,,0.00,WeatherDisplay:10.37,2013-03-02 14:12:00,
2013-03-02 07:17:00,30.0,20.7,29.66,North,0,0.0,0.0,68,0.00,CLR,,0.00,WeatherDisplay:10.37,2013-03-02 14:17:00,
2013-03-02 07:22:00,30.0,20.7,29.66,NNE,22,0.0,0.0,68,0.00,CLR,,0.00,WeatherDisplay:10.37,2013-03-02 14:22:00,
2013-03-02 07:27:00,30.4,21.1,29.65,NNW,338,0.0,0.0,68,0.00,CLR,,0.00,WeatherDisplay:10.37,2013-03-02 14:27:00,
2013-03-02 07:32:00,30.0,20.7,29.65,North,0,0.0,0.0,68,0.00,CLR,,0.00,WeatherDisplay:10.37,2013-03-02 14:32:00,
2013-03-02 07:37:00,30.4,21.1,29.65,NNW,338,0.0,0.0,68,0.00,CLR,,0.00,WeatherDisplay:10.37,2013-03-02 14:37:00,
2013-03-02 07:42:00,30.4,21.1,29.65,NNW,338,0.0,0.0,68,0.00,CLR,,0.00,WeatherDisplay:10.37,2013-03-02 14:42:00,
2013-03-02 07:47:00,30.2,20.9,29.65,North,0,0.0,0.0,68,0.00,CLR,,0.00,WeatherDisplay:10.37,2013-03-02 14:47:00,
2013-03-02 07:52:00,30.4,21.1,29.65,North,0,0.0,0.0,68,0.00,CLR,,0.00,WeatherDisplay:10.37,2013-03-02 14:52:00,
2013-03-02 07:57:00,30.4,21.1,29.65,NNW,338,0.0,0.0,68,0.00,CLR,,0.00,WeatherDisplay:10.37,2013-03-02 14:57:00,
2013-03-02 08:02:00,30.6,21.2,29.65,North,0,0.0,0.0,68,0.00,CLR,,0.00,WeatherDisplay:10.37,2013-03-02 15:02:00,
2013-03-02 08:07:00,30.7,21.4,29.65,NNE,22,0.0,0.0,68,0.00,CLR,,0.00,WeatherDisplay:10.37,2013-03-02 15:07:00,
2013-03-02 08:12:00,30.7,21.4,29.65,NNE,22,0.0,0.0,68,0.00,CLR,,0.00,WeatherDisplay:10.37,2013-03-02 15:12:00,
2013-03-02 08:17:00,31.1,21.8,29.65,NNW,338,0.0,0.0,68,0.00,CLR,,0.00,WeatherDisplay:10.37,2013-03-02 15:17:00,
2013-03-02 08:22:00,31.1,21.8,29.65,North,0,0.0,0.0,68,0.00,CLR,,0.00,WeatherDisplay:10.37,2013-03-02 15:22:00,
2013-03-02 08:27:00,31.1,21.8,29.64,NNW,338,0.0,0.0,68,0.00,CLR,,0.00,WeatherDisplay:10.37,2013-03-02 15:27:00,
2013-03-02 08:32:00,31.3,22.3,29.64,NNE,22,0.0,0.0,69,0.00,CLR,,0.00,WeatherDisplay:10.37,2013-03-02 15:32:00,
2013-03-02 08:37:00,31.5,22.5,29.64,North,0,0.0,0.0,69,0.00,CLR,,0.00,WeatherDisplay:10.37,2013-03-02 15:37:00,
2013-03-02 08:42:00,31.6,22.6,29.64,NNW,338,0.0,0.0,69,0.00,CLR,,0.00,WeatherDisplay:10.37,2013-03-02 15:42:00,
2013-03-02 08:47:00,32.2,23.1,29.64,NNW,338,0.0,0.0,69,0.00,CLR,,0.00,WeatherDisplay:10.37,2013-03-02 15:47:00,
2013-03-02 08:52:00,32.4,23.3,29.64,NNE,22,0.0,0.0,69,0.00,CLR,,0.00,WeatherDisplay:10.37,2013-03-02 15:52:00,
2013-03-02 08:57:00,32.9,23.8,29.64,NNW,338,0.0,0.0,69,0.00,CLR,,0.00,WeatherDisplay:10.37,2013-03-02 15:57:00,
2013-03-02 09:02:00,33.4,24.4,29.64,NNW,338,0.0,0.0,69,0.00,CLR,,0.00,WeatherDisplay:10.37,2013-03-02 16:02:00,
2013-03-02 09:07:00,34.0,24.9,29.65,NW,315,0.0,0.0,69,0.00,CLR,,0.00,WeatherDisplay:10.37,2013-03-02 16:07:00,
2013-03-02 09:12:00,34.2,25.0,29.65,NW,315,0.0,0.0,69,0.00,CLR,,0.00,WeatherDisplay:10.37,2013-03-02 16:12:00,
2013-03-02 09:17:00,34.7,25.2,29.65,NNW,338,0.0,0.0,68,0.00,CLR,,0.00,WeatherDisplay:10.37,2013-03-02 16:17:00,
2013-03-02 09:22:00,34.9,25.4,29.65,North,0,0.0,0.0,68,0.00,CLR,,0.00,WeatherDisplay:10.37,2013-03-02 16:22:00,
2013-03-02 09:27:00,35.4,25.9,29.66,NNW,338,0.0,0.0,68,0.00,CLR,,0.00,WeatherDisplay:10.37,2013-03-02 16:27:00,
2013-03-02 09:32:00,35.8,26.2,29.66,North,0,0.0,0.0,68,0.00,CLR,,0.00,WeatherDisplay:10.37,2013-03-02 16:32:00,
2013-03-02 09:37:00,36.3,26.8,29.66,SE,135,0.0,0.0,68,0.00,CLR,,0.00,WeatherDisplay:10.37,2013-03-02 16:37:00,
2013-03-02 09:42:00,36.9,27.3,29.66,WNW,292,0.0,0.0,68,0.00,CLR,,0.00,WeatherDisplay:10.37,2013-03-02 16:42:00,
2013-03-02 09:47:00,37.6,28.0,29.65,NNW,338,0.0,0.0,68,0.00,CLR,,0.00,WeatherDisplay:10.37,2013-03-02 16:47:00,
2013-03-02 09:52:00,37.8,28.1,29.65,NNW,338,0.0,0.0,68,0.00,CLR,,0.00,WeatherDisplay:10.37,2013-03-02 16:52:00,
2013-03-02 09:57:00,38.5,28.5,29.65,NW,315,0.0,0.0,67,0.00,CLR,,0.00,WeatherDisplay:10.37,2013-03-02 16:57:00,
2013-03-02 10:02:00,39.0,29.0,29.65,North,0,0.0,0.0,67,0.00,CLR,,0.00,WeatherDisplay:10.37,2013-03-02 17:02:00,
2013-03-02 10:07:00,39.7,29.7,29.63,NNW,338,0.0,0.0,67,0.00,CLR,,0.00,WeatherDisplay:10.37,2013-03-02 17:07:00,
2013-03-02 10:12:00,40.1,29.6,29.63,NW,315,0.0,0.0,66,0.00,CLR,,0.00,WeatherDisplay:10.37,2013-03-02 17:12:00,
2013-03-02 10:17:00,40.8,30.3,29.63,North,0,0.0,0.0,66,0.00,CLR,,0.00,WeatherDisplay:10.37,2013-03-02 17:17:00,
2013-03-02 10:22:00,41.2,30.3,29.63,NW,315,0.0,0.0,65,0.00,CLR,,0.00,WeatherDisplay:10.37,2013-03-02 17:22:00,
2013-03-02 10:27:00,41.9,31.0,29.64,NE,45,0.0,0.0,65,0.00,CLR,,0.00,WeatherDisplay:10.37,2013-03-02 17:27:00,
2013-03-02 10:32:00,42.1,30.8,29.64,NNW,338,0.0,0.0,64,0.00,CLR,,0.00,WeatherDisplay:10.37,2013-03-02 17:32:00,
2013-03-02 10:37:00,42.8,31.1,29.64,NNW,338,0.0,0.0,63,0.00,CLR,,0.00,WeatherDisplay:10.37,2013-03-02 17:37:00,
2013-03-02 10:42:00,43.3,31.6,29.64,West,270,0.0,0.0,63,0.00,CLR,,0.00,WeatherDisplay:10.37,2013-03-02 17:42:00,
2013-03-02 10:47:00,44.1,31.9,29.63,WSW,248,0.0,0.0,62,0.00,CLR,,0.00,WeatherDisplay:10.37,2013-03-02 17:47:00,
2013-03-02 10:53:00,44.4,31.8,29.63,ENE,68,0.0,0.0,61,0.00,CLR,,0.00,WeatherDisplay:10.37,2013-03-02 17:53:00,
2013-03-02 10:58:00,45.5,32.8,29.63,NNW,338,4.7,4.7,61,0.00,CLR,,0.00,WeatherDisplay:10.37,2013-03-02 17:58:00,
2013-03-02 11:03:00,45.7,32.6,29.63,East,90,2.3,2.3,60,0.00,CLR,,0.00,WeatherDisplay:10.37,2013-03-02 18:03:00,
2013-03-02 11:08:00,46.9,33.3,29.62,SSW,202,3.5,3.5,59,0.00,CLR,,0.00,WeatherDisplay:10.37,2013-03-02 18:08:00,
2013-03-02 11:13:00,47.1,33.1,29.62,ENE,68,4.9,4.9,58,0.00,CLR,,0.00,WeatherDisplay:10.37,2013-03-02 18:13:00,
2013-03-02 11:18:00,47.8,33.3,29.62,ENE,68,0.0,1.3,57,0.00,CLR,,0.00,WeatherDisplay:10.37,2013-03-02 18:18:00,
2013-03-02 11:23:00,48.4,33.8,29.62,NE,45,0.0,1.1,57,0.00,CLR,,0.00,WeatherDisplay:10.37,2013-03-02 18:23:00,
2013-03-02 11:28:00,48.7,34.2,29.62,SE,135,0.0,0.6,57,0.00,CLR,,0.00,WeatherDisplay:10.37,2013-03-02 18:28:00,
2013-03-02 11:33:00,48.9,34.3,29.62,North,0,0.0,0.3,57,0.00,CLR,,0.00,WeatherDisplay:10.37,2013-03-02 18:33:00,
2013-03-02 11:38:00,49.5,34.4,29.62,ESE,112,0.0,0.1,56,0.00,CLR,,0.00,WeatherDisplay:10.37,2013-03-02 18:38:00,
2013-03-02 11:43:00,49.8,34.7,29.62,WNW,292,0.0,0.2,56,0.00,CLR,,0.00,WeatherDisplay:10.37,2013-03-02 18:43:00,
2013-03-02 11:48:00,50.2,34.6,29.61,North,0,0.0,0.0,55,0.00,CLR,,0.00,WeatherDisplay:10.37,2013-03-02 18:48:00,
2013-03-02 11:53:00,50.4,34.8,29.61,East,90,3.8,3.8,55,0.00,CLR,,0.00,WeatherDisplay:10.37,2013-03-02 18:53:00,
2013-03-02 11:58:00,51.1,35.0,29.61,SE,135,1.1,1.1,54,0.00,CLR,,0.00,WeatherDisplay:10.37,2013-03-02 18:58:00,
2013-03-02 12:03:00,51.4,35.3,29.61,ENE,68,0.0,0.6,54,0.00,CLR,,0.00,WeatherDisplay:10.37,2013-03-02 19:03:00,
2013-03-02 12:08:00,51.4,35.3,29.60,ENE,68,0.0,0.6,54,0.00,CLR,,0.00,WeatherDisplay:10.37,2013-03-02 19:08:00,
2013-03-02 12:13:00,52.2,35.5,29.60,SSW,202,2.3,2.3,53,0.00,CLR,,0.00,WeatherDisplay:10.37,2013-03-02 19:13:00,
2013-03-02 12:18:00,52.7,35.6,29.60,ESE,112,2.3,2.3,52,0.00,CLR,,0.00,WeatherDisplay:10.37,2013-03-02 19:18:00,
2013-03-02 12:23:00,53.1,35.9,29.60,ESE,112,2.3,2.3,52,0.00,CLR,,0.00,WeatherDisplay:10.37,2013-03-02 19:23:00,
2013-03-02 12:28:00,53.2,35.6,29.59,WSW,248,5.8,5.8,51,0.00,CLR,,0.00,WeatherDisplay:10.37,2013-03-02 19:28:00,
2013-03-02 12:33:00,53.6,35.4,29.59,North,0,2.3,2.3,50,0.00,CLR,,0.00,WeatherDisplay:10.37,2013-03-02 19:33:00,
2013-03-02 12:38:00,54.1,35.9,29.59,North,0,2.3,2.3,50,0.00,CLR,,0.00,WeatherDisplay:10.37,2013-03-02 19:38:00,
2013-03-02 12:43:00,54.3,36.1,29.59,ENE,68,0.0,0.5,50,0.00,CLR,,0.00,WeatherDisplay:10.37,2013-03-02 19:43:00,
2013-03-02 12:48:00,54.9,36.6,29.58,North,0,2.3,2.3,50,0.00,CLR,,0.00,WeatherDisplay:10.37,2013-03-02 19:48:00,
2013-03-02 12:53:00,55.0,36.2,29.58,East,90,3.5,3.5,49,0.00,CLR,,0.00,WeatherDisplay:10.37,2013-03-02 19:53:00,
2013-03-02 12:58:00,55.2,36.4,29.58,SW,225,0.0,1.0,49,0.00,CLR,,0.00,WeatherDisplay:10.37,2013-03-02 19:58:00,
2013-03-02 13:03:00,55.6,36.7,29.58,ENE,68,2.3,2.3,49,0.00,CLR,,0.00,WeatherDisplay:10.37,2013-03-02 20:03:00,
2013-03-02 13:08:00,55.9,37.0,29.56,East,90,2.3,2.3,49,0.00,CLR,,0.00,WeatherDisplay:10.37,2013-03-02 20:08:00,
2013-03-02 13:13:00,56.5,37.5,29.56,SE,135,2.8,2.8,49,0.00,CLR,,0.00,WeatherDisplay:10.37,2013-03-02 20:13:00,
2013-03-02 13:18:00,56.7,37.2,29.56,SE,135,2.3,2.3,48,0.00,CLR,,0.00,WeatherDisplay:10.37,2013-03-02 20:18:00,
2013-03-02 13:23:00,57.0,37.5,29.56,ENE,68,2.3,2.3,48,0.00,CLR,,0.00,WeatherDisplay:10.37,2013-03-02 20:23:00,
2013-03-02 13:28:00,57.4,37.3,29.55,WSW,248,0.0,1.1,47,0.00,CLR,,0.00,WeatherDisplay:10.37,2013-03-02 20:28:00,
2013-03-02 13:33:00,57.9,37.8,29.55,SW,225,2.3,2.3,47,0.00,CLR,,0.00,WeatherDisplay:10.37,2013-03-02 20:33:00,
2013-03-02 13:38:00,58.5,37.7,29.55,East,90,3.7,3.7,46,0.00,CLR,,0.00,WeatherDisplay:10.37,2013-03-02 20:38:00,
2013-03-02 13:43:00,58.8,36.9,29.55,SSW,202,2.8,2.8,44,0.00,CLR,,0.00,WeatherDisplay:10.37,2013-03-02 20:43:00,
2013-03-02 13:48:00,58.8,36.4,29.54,SSE,158,8.1,8.1,43,0.00,CLR,,0.00,WeatherDisplay:10.37,2013-03-02 20:48:00,
2013-03-02 13:53:00,59.0,37.1,29.54,SSW,202,2.3,2.4,44,0.00,CLR,,0.00,WeatherDisplay:10.37,2013-03-02 20:53:00,
2013-03-02 13:58:00,59.5,38.2,29.54,East,90,1.1,1.4,45,0.00,CLR,,0.00,WeatherDisplay:10.37,2013-03-02 20:58:00,
2013-03-02 14:03:00,59.4,37.4,29.54,ESE,112,3.5,3.5,44,0.00,CLR,,0.00,WeatherDisplay:10.37,2013-03-02 21:03:00,
2013-03-02 14:08:00,59.2,36.1,29.53,SSE,158,2.3,2.3,42,0.00,CLR,,0.00,WeatherDisplay:10.37,2013-03-02 21:08:00,
2013-03-02 14:13:00,58.6,36.8,29.53,SW,225,3.5,3.5,44,0.00,CLR,,0.00,WeatherDisplay:10.37,2013-03-02 21:13:00,
2013-03-02 14:18:00,58.5,36.6,29.53,NNW,338,3.5,3.5,44,0.00,CLR,,0.00,WeatherDisplay:10.37,2013-03-02 21:18:00,
2013-03-02 14:23:00,58.1,36.9,29.54,SE,135,2.3,2.3,45,0.00,CLR,,0.00,WeatherDisplay:10.37,2013-03-02 21:23:00,
2013-03-02 14:28:00,58.1,37.4,29.54,ESE,112,1.1,1.1,46,0.00,CLR,,0.00,WeatherDisplay:10.37,2013-03-02 21:28:00,
2013-03-02 14:33:00,57.9,37.2,29.54,NE,45,1.1,1.1,46,0.00,CLR,,0.00,WeatherDisplay:10.37,2013-03-02 21:33:00,
2013-03-02 14:38:00,57.9,37.2,29.54,ENE,68,2.9,2.9,46,0.00,CLR,,0.00,WeatherDisplay:10.37,2013-03-02 21:38:00,
2013-03-02 14:43:00,57.9,37.2,29.53,ENE,68,0.0,1.0,46,0.00,CLR,,0.00,WeatherDisplay:10.37,2013-03-02 21:43:00,
2013-03-02 14:48:00,58.1,37.4,29.53,North,0,0.0,0.9,46,0.00,CLR,,0.00,WeatherDisplay:10.37,2013-03-02 21:48:00,
2013-03-02 14:53:00,58.1,37.4,29.53,SSW,202,0.0,0.0,46,0.00,CLR,,0.00,WeatherDisplay:10.37,2013-03-02 21:53:00,
2013-03-02 14:58:00,58.1,37.4,29.53,SSW,202,0.0,0.0,46,0.00,CLR,,0.00,WeatherDisplay:10.37,2013-03-02 21:58:00,
2013-03-02 15:03:00,58.1,37.4,29.52,SSW,202,0.0,0.0,46,0.00,CLR,,0.00,WeatherDisplay:10.37,2013-03-02 22:03:00,
2013-03-02 15:08:00,58.1,37.4,29.49,SW,225,0.0,0.0,46,0.00,CLR,,0.00,WeatherDisplay:10.37,2013-03-02 22:08:00,
2013-03-02 15:13:00,57.4,36.8,29.49,WSW,248,0.0,0.0,46,0.00,CLR,,0.00,WeatherDisplay:10.37,2013-03-02 22:13:00,
2013-03-02 15:19:00,57.0,36.4,29.49,West,270,0.0,0.0,46,0.00,CLR,,0.00,WeatherDisplay:10.37,2013-03-02 22:19:00,
2013-03-02 15:24:00,57.0,37.0,29.49,SE,135,1.1,0.0,47,0.00,CLR,,0.00,WeatherDisplay:10.37,2013-03-02 22:24:00,
2013-03-02 15:29:00,56.3,36.3,29.46,WNW,292,0.0,0.3,47,0.00,CLR,,0.00,WeatherDisplay:10.37,2013-03-02 22:29:00,
2013-03-02 15:34:00,56.3,36.3,29.46,North,0,0.0,0.3,47,0.00,CLR,,0.00,WeatherDisplay:10.37,2013-03-02 22:34:00,
2013-03-02 15:39:00,56.3,36.3,29.46,SSE,158,0.0,0.0,47,0.00,CLR,,0.00,WeatherDisplay:10.37,2013-03-02 22:39:00,
2013-03-02 15:44:00,56.3,36.3,29.46,ENE,68,0.0,0.0,47,0.00,CLR,,0.00,WeatherDisplay:10.37,2013-03-02 22:44:00,
2013-03-02 15:49:00,56.3,36.3,29.49,NE,45,0.0,0.0,47,0.00,CLR,,0.00,WeatherDisplay:10.37,2013-03-02 22:49:00,
2013-03-02 15:54:00,56.5,36.5,29.49,West,270,0.0,0.0,47,0.00,CLR,,0.00,WeatherDisplay:10.37,2013-03-02 22:54:00,
2013-03-02 15:59:00,56.5,35.9,29.49,SSE,158,0.0,0.0,46,0.00,CLR,,0.00,WeatherDisplay:10.37,2013-03-02 22:59:00,
2013-03-02 16:04:00,56.3,35.8,29.49,SW,225,0.0,0.0,46,0.00,CLR,,0.00,WeatherDisplay:10.37,2013-03-02 23:04:00,
2013-03-02 16:09:00,56.5,35.9,29.49,WSW,248,0.0,0.0,46,0.00,CLR,,0.00,WeatherDisplay:10.37,2013-03-02 23:09:00,
2013-03-02 16:14:00,56.3,35.2,29.49,WSW,248,0.0,0.0,45,0.00,CLR,,0.00,WeatherDisplay:10.37,2013-03-02 23:14:00,
2013-03-02 16:19:00,56.5,35.4,29.49,SSW,202,0.0,0.0,45,0.00,CLR,,0.00,WeatherDisplay:10.37,2013-03-02 23:19:00,
2013-03-02 16:24:00,56.5,35.4,29.49,SSW,202,2.3,2.3,45,0.00,CLR,,0.00,WeatherDisplay:10.37,2013-03-02 23:24:00,
2013-03-02 16:29:00,56.5,34.8,29.46,WSW,248,0.0,0.3,44,0.00,CLR,,0.00,WeatherDisplay:10.37,2013-03-02 23:29:00,
2013-03-02 16:34:00,56.3,34.1,29.46,SW,225,0.0,0.3,43,0.00,CLR,,0.00,WeatherDisplay:10.37,2013-03-02 23:34:00,
2013-03-02 16:39:00,56.3,35.2,29.46,South,180,2.3,2.3,45,0.00,CLR,,0.00,WeatherDisplay:10.37,2013-03-02 23:39:00,
2013-03-02 16:44:00,56.3,34.6,29.46,SW,225,2.3,2.3,44,0.00,CLR,,0.00,WeatherDisplay:10.37,2013-03-02 23:44:00,
2013-03-02 16:49:00,55.8,33.6,29.42,WSW,248,2.3,2.3,43,0.00,CLR,,0.00,WeatherDisplay:10.37,2013-03-02 23:49:00,
2013-03-02 16:54:00,55.6,33.4,29.42,WSW,248,0.0,0.3,43,0.00,CLR,,0.00,WeatherDisplay:10.37,2013-03-02 23:54:00,
2013-03-02 16:59:00,55.2,33.7,29.42,SW,225,0.0,0.1,44,0.00,CLR,,0.00,WeatherDisplay:10.37,2013-03-02 23:59:00,
2013-03-02 17:04:00,55.0,33.5,29.42,SW,225,0.0,0.0,44,0.00,CLR,,0.00,WeatherDisplay:10.37,2013-03-03 00:04:00,
2013-03-02 17:09:00,54.9,33.9,29.40,West,270,0.0,0.0,45,0.00,CLR,,0.00,WeatherDisplay:10.37,2013-03-03 00:09:00,
2013-03-02 17:14:00,54.9,33.9,29.40,North,0,0.0,0.0,45,0.00,CLR,,0.00,WeatherDisplay:10.37,2013-03-03 00:14:00,
2013-03-02 17:19:00,54.5,33.6,29.40,SSW,202,0.0,0.0,45,0.00,CLR,,0.00,WeatherDisplay:10.37,2013-03-03 00:19:00,
2013-03-02 17:24:00,54.1,33.8,29.40,WSW,248,0.0,0.0,46,0.00,CLR,,0.00,WeatherDisplay:10.37,2013-03-03 00:24:00,
2013-03-02 17:29:00,53.6,33.3,29.39,ENE,68,0.0,0.0,46,0.00,CLR,,0.00,WeatherDisplay:10.37,2013-03-03 00:29:00,
2013-03-02 17:34:00,53.4,33.1,29.39,WSW,248,0.0,0.0,46,0.00,CLR,,0.00,WeatherDisplay:10.37,2013-03-03 00:34:00,
2013-03-02 17:39:00,52.7,33.0,29.39,WSW,248,0.0,0.0,47,0.00,CLR,,0.00,WeatherDisplay:10.37,2013-03-03 00:39:00,
2013-03-02 17:44:00,52.2,32.5,29.39,WSW,248,0.0,0.0,47,0.00,CLR,,0.00,WeatherDisplay:10.37,2013-03-03 00:44:00,
2013-03-02 17:49:00,51.3,31.7,29.39,SSE,158,0.0,0.0,47,0.00,CLR,,0.00,WeatherDisplay:10.37,2013-03-03 00:49:00,
2013-03-02 17:54:00,50.9,31.9,29.39,NE,45,0.0,0.0,48,0.00,CLR,,0.00,WeatherDisplay:10.37,2013-03-03 00:54:00,
2013-03-02 17:59:00,50.4,31.4,29.39,NNW,338,0.0,0.0,48,0.00,CLR,,0.00,WeatherDisplay:10.37,2013-03-03 00:59:00,
2013-03-02 18:04:00,49.8,30.9,29.39,North,0,0.0,0.0,48,0.00,CLR,,0.00,WeatherDisplay:10.37,2013-03-03 01:04:00,
2013-03-02 18:09:00,49.1,30.7,29.38,North,0,0.0,0.0,49,0.00,CLR,,0.00,WeatherDisplay:10.37,2013-03-03 01:09:00,
2013-03-02 18:14:00,48.7,30.4,29.38,North,0,0.0,0.0,49,0.00,CLR,,0.00,WeatherDisplay:10.37,2013-03-03 01:14:00,
2013-03-02 18:19:00,48.0,29.7,29.38,West,270,0.0,0.0,49,0.00,CLR,,0.00,WeatherDisplay:10.37,2013-03-03 01:19:00,
2013-03-02 18:24:00,47.7,29.4,29.38,North,0,0.0,0.0,49,0.00,CLR,,0.00,WeatherDisplay:10.37,2013-03-03 01:24:00,
2013-03-02 18:29:00,46.9,29.2,29.38,NNW,338,0.0,0.0,50,0.00,CLR,,0.00,WeatherDisplay:10.37,2013-03-03 01:29:00,
2013-03-02 18:34:00,46.4,28.8,29.38,North,0,0.0,0.0,50,0.00,CLR,,0.00,WeatherDisplay:10.37,2013-03-03 01:34:00,
2013-03-02 18:39:00,45.9,28.3,29.38,NNW,338,0.0,0.0,50,0.00,CLR,,0.00,WeatherDisplay:10.37,2013-03-03 01:39:00,
2013-03-02 18:44:00,45.5,28.4,29.38,NNW,338,0.0,0.0,51,0.00,CLR,,0.00,WeatherDisplay:10.37,2013-03-03 01:44:00,
2013-03-02 18:49:00,45.0,27.9,29.38,NNW,338,0.0,0.0,51,0.00,CLR,,0.00,WeatherDisplay:10.37,2013-03-03 01:49:00,
2013-03-02 18:54:00,44.8,28.2,29.38,NNW,338,0.0,0.0,52,0.00,CLR,,0.00,WeatherDisplay:10.37,2013-03-03 01:54:00,
2013-03-02 18:59:00,44.1,27.5,29.38,NNW,338,0.0,0.0,52,0.00,CLR,,0.00,WeatherDisplay:10.37,2013-03-03 01:59:00,
2013-03-02 19:04:00,43.7,27.2,29.38,North,0,0.0,0.0,52,0.00,CLR,,0.00,WeatherDisplay:10.37,2013-03-03 02:04:00,
2013-03-02 19:09:00,43.3,26.9,29.38,NNW,338,0.0,0.0,52,0.00,CLR,,0.00,WeatherDisplay:10.37,2013-03-03 02:09:00,
2013-03-02 19:14:00,43.0,27.0,29.38,North,0,0.0,0.0,53,0.00,CLR,,0.00,WeatherDisplay:10.37,2013-03-03 02:14:00,
2013-03-02 19:19:00,42.3,26.3,29.38,North,0,0.0,0.0,53,0.00,CLR,,0.00,WeatherDisplay:10.37,2013-03-03 02:19:00,
2013-03-02 19:24:00,42.1,26.2,29.38,NNW,338,0.0,0.0,53,0.00,CLR,,0.00,WeatherDisplay:10.37,2013-03-03 02:24:00,
2013-03-02 19:29:00,41.9,26.4,29.38,North,0,0.0,0.0,54,0.00,CLR,,0.00,WeatherDisplay:10.37,2013-03-03 02:29:00,
2013-03-02 19:34:00,41.5,26.1,29.38,North,0,0.0,0.0,54,0.00,CLR,,0.00,WeatherDisplay:10.37,2013-03-03 02:34:00,
2013-03-02 19:39:00,41.5,26.1,29.38,North,0,0.0,0.0,54,0.00,CLR,,0.00,WeatherDisplay:10.37,2013-03-03 02:39:00,
2013-03-02 19:44:00,41.4,25.9,29.38,NNW,338,0.0,0.0,54,0.00,CLR,,0.00,WeatherDisplay:10.37,2013-03-03 02:44:00,
2013-03-02 19:49:00,41.2,26.2,29.36,North,0,0.0,0.0,55,0.00,CLR,,0.00,WeatherDisplay:10.37,2013-03-03 02:49:00,
2013-03-02 19:54:00,41.0,26.1,29.36,WSW,248,0.0,0.0,55,0.00,CLR,,0.00,WeatherDisplay:10.37,2013-03-03 02:54:00,
2013-03-02 19:59:00,40.6,25.7,29.36,NE,45,0.0,0.0,55,0.00,CLR,,0.00,WeatherDisplay:10.37,2013-03-03 02:59:00,
2013-03-02 20:04:00,40.6,25.7,29.36,SSW,202,0.0,0.0,55,0.00,CLR,,0.00,WeatherDisplay:10.37,2013-03-03 03:04:00,
2013-03-02 20:09:00,40.5,26.0,29.35,North,0,0.0,0.0,56,0.00,CLR,,0.00,WeatherDisplay:10.37,2013-03-03 03:09:00,
2013-03-02 20:14:00,40.3,25.8,29.35,NNW,338,0.0,0.0,56,0.00,CLR,,0.00,WeatherDisplay:10.37,2013-03-03 03:14:00,
2013-03-02 20:19:00,39.9,25.5,29.35,NNW,338,0.0,0.0,56,0.00,CLR,,0.00,WeatherDisplay:10.37,2013-03-03 03:19:00,
2013-03-02 20:24:00,39.9,25.5,29.35,NW,315,0.0,0.0,56,0.00,CLR,,0.00,WeatherDisplay:10.37,2013-03-03 03:24:00,
2013-03-02 20:29:00,39.7,25.3,29.35,North,0,0.0,0.0,56,0.00,CLR,,0.00,WeatherDisplay:10.37,2013-03-03 03:29:00,
2013-03-02 20:34:00,39.4,25.0,29.35,NNW,338,0.0,0.0,56,0.00,CLR,,0.00,WeatherDisplay:10.37,2013-03-03 03:34:00,
2013-03-02 20:39:00,39.2,25.2,29.35,North,0,0.0,0.0,57,0.00,CLR,,0.00,WeatherDisplay:10.37,2013-03-03 03:39:00,
2013-03-02 20:44:00,39.0,25.1,29.35,North,0,0.0,0.0,57,0.00,CLR,,0.00,WeatherDisplay:10.37,2013-03-03 03:44:00,
2013-03-02 20:49:00,38.7,24.7,29.35,North,0,0.0,0.0,57,0.00,CLR,,0.00,WeatherDisplay:10.37,2013-03-03 03:49:00,
2013-03-02 20:54:00,38.5,24.6,29.35,NNW,338,0.0,0.0,57,0.00,CLR,,0.00,WeatherDisplay:10.37,2013-03-03 03:54:00,
2013-03-02 20:59:00,38.3,24.4,29.35,North,0,0.0,0.0,57,0.00,CLR,,0.00,WeatherDisplay:10.37,2013-03-03 03:59:00,
2013-03-02 21:04:00,37.9,24.0,29.35,NNW,338,0.0,0.0,57,0.00,CLR,,0.00,WeatherDisplay:10.37,2013-03-03 04:04:00,
2013-03-02 21:09:00,37.8,24.3,29.33,North,0,0.0,0.0,58,0.00,CLR,,0.00,WeatherDisplay:10.37,2013-03-03 04:09:00,
2013-03-02 21:14:00,37.6,24.1,29.33,North,0,0.0,0.0,58,0.00,CLR,,0.00,WeatherDisplay:10.37,2013-03-03 04:14:00,
2013-03-02 21:19:00,37.0,23.6,29.33,North,0,0.0,0.0,58,0.00,CLR,,0.00,WeatherDisplay:10.37,2013-03-03 04:19:00,
2013-03-02 21:24:00,37.0,23.6,29.33,NNW,338,0.0,0.0,58,0.00,CLR,,0.00,WeatherDisplay:10.37,2013-03-03 04:24:00,
2013-03-02 21:29:00,36.9,23.4,29.34,NNW,338,0.0,0.0,58,0.00,CLR,,0.00,WeatherDisplay:10.37,2013-03-03 04:29:00,
2013-03-02 21:34:00,36.5,23.1,29.34,North,0,0.0,0.0,58,0.00,CLR,,0.00,WeatherDisplay:10.37,2013-03-03 04:34:00,
2013-03-02 21:39:00,36.3,22.9,29.34,NNW,338,0.0,0.0,58,0.00,CLR,,0.00,WeatherDisplay:10.37,2013-03-03 04:39:00,
2013-03-02 21:44:00,36.1,23.2,29.34,NNW,338,0.0,0.0,59,0.00,CLR,,0.00,WeatherDisplay:10.37,2013-03-03 04:44:00,
2013-03-02 21:49:00,35.8,22.8,29.33,North,0,0.0,0.0,59,0.00,CLR,,0.00,WeatherDisplay:10.37,2013-03-03 04:49:00,
2013-03-02 21:54:00,35.6,22.7,29.33,NNW,338,0.0,0.0,59,0.00,CLR,,0.00,WeatherDisplay:10.37,2013-03-03 04:54:00,
2013-03-02 21:59:00,35.4,22.9,29.33,NNW,338,0.0,0.0,60,0.00,CLR,,0.00,WeatherDisplay:10.37,2013-03-03 04:59:00,
2013-03-02 22:00:00,35.4,22.9,29.33,NNW,338,0.0,0.0,60,0.00,CLR,,0.00,WeatherDisplay:10.37,2013-03-03 05:00:00,
2013-03-02 22:01:00,35.4,22.9,29.33,NNW,338,0.0,0.0,60,0.00,CLR,,0.00,WeatherDisplay:10.37,2013-03-03 05:01:00,
2013-03-02 22:06:00,35.1,22.6,29.33,North,0,0.0,0.0,60,0.00,CLR,,0.00,WeatherDisplay:10.37,2013-03-03 05:06:00,
2013-03-02 22:11:00,35.1,22.6,29.32,North,0,0.0,0.0,60,0.00,CLR,,0.00,WeatherDisplay:10.37,2013-03-03 05:11:00,
2013-03-02 22:16:00,34.7,22.2,29.32,North,0,0.0,0.0,60,0.00,CLR,,0.00,WeatherDisplay:10.37,2013-03-03 05:16:00,
2013-03-02 22:21:00,34.5,22.1,29.32,NNW,338,0.0,0.0,60,0.00,CLR,,0.00,WeatherDisplay:10.37,2013-03-03 05:21:00,
2013-03-02 22:26:00,34.5,22.1,29.32,NNW,338,0.0,0.0,60,0.00,CLR,,0.00,WeatherDisplay:10.37,2013-03-03 05:26:00,
2013-03-02 22:31:00,34.3,21.9,29.32,NNW,338,0.0,0.0,60,0.00,CLR,,0.00,WeatherDisplay:10.37,2013-03-03 05:31:00,
2013-03-02 22:36:00,34.2,22.1,29.32,NW,315,0.0,0.0,61,0.00,CLR,,0.00,WeatherDisplay:10.37,2013-03-03 05:36:00,
2013-03-02 22:41:00,34.2,22.1,29.32,NNE,22,0.0,0.0,61,0.00,CLR,,0.00,WeatherDisplay:10.37,2013-03-03 05:41:00,
2013-03-02 22:46:00,34.0,21.9,29.32,NNW,338,0.0,0.0,61,0.00,CLR,,0.00,WeatherDisplay:10.37,2013-03-03 05:46:00,
2013-03-02 22:51:00,34.0,21.9,29.32,NNW,338,0.0,0.0,61,0.00,CLR,,0.00,WeatherDisplay:10.37,2013-03-03 05:51:00,
2013-03-02 22:56:00,33.8,22.1,29.32,NNW,338,0.0,0.0,62,0.00,CLR,,0.00,WeatherDisplay:10.37,2013-03-03 05:56:00,
2013-03-02 23:01:00,34.0,22.3,29.32,NNW,338,0.0,0.0,62,0.00,CLR,,0.00,WeatherDisplay:10.37,2013-03-03 06:01:00,
2013-03-02 23:06:00,34.0,22.3,29.32,NNW,338,0.0,0.0,62,0.00,CLR,,0.00,WeatherDisplay:10.37,2013-03-03 06:06:00,
2013-03-02 23:11:00,33.6,22.0,29.31,NW,315,0.0,0.0,62,0.00,CLR,,0.00,WeatherDisplay:10.37,2013-03-03 06:11:00,
2013-03-02 23:16:00,33.6,22.0,29.31,NW,315,0.0,0.0,62,0.00,CLR,,0.00,WeatherDisplay:10.37,2013-03-03 06:16:00,
2013-03-02 23:21:00,33.6,22.0,29.31,NNW,338,0.0,0.0,62,0.00,CLR,,0.00,WeatherDisplay:10.37,2013-03-03 06:21:00,
2013-03-02 23:26:00,33.4,21.8,29.31,NNW,338,0.0,0.0,62,0.00,CLR,,0.00,WeatherDisplay:10.37,2013-03-03 06:26:00,
2013-03-02 23:31:00,33.3,22.0,29.31,NW,315,0.0,0.0,63,0.00,CLR,,0.00,WeatherDisplay:10.37,2013-03-03 06:31:00,
2013-03-02 23:36:00,33.1,21.8,29.31,NNW,338,0.0,0.0,63,0.00,CLR,,0.00,WeatherDisplay:10.37,2013-03-03 06:36:00,
2013-03-02 23:41:00,33.3,22.0,29.31,ENE,68,0.0,0.0,63,0.00,CLR,,0.00,WeatherDisplay:10.37,2013-03-03 06:41:00,
2013-03-02 23:46:00,33.3,22.0,29.31,NW,315,0.0,0.0,63,0.00,CLR,,0.00,WeatherDisplay:10.37,2013-03-03 06:46:00,
2013-03-02 23:51:00,33.4,22.2,29.30,NNW,338,0.0,0.0,63,0.00,CLR,,0.00,WeatherDisplay:10.37,2013-03-03 06:51:00,
2013-03-02 23:56:00,33.4,22.2,29.30,NW,315,0.0,0.0,63,0.00,CLR,,0.00,WeatherDisplay:10.37,2013-03-03 06:56:00,